Windsor, Ontario

4:34 AM EDT on August 24, 2016 (GMT -0400)
Windsor

Weather History for CYQG - December, 2012

Change the Weather History Date:

Thursday, December 20, 2012

  Actual Average Record
Temperature  
Mean Temperature 41 °F -  
Max Temperature 46 °F 32 °F 46 °F (2002)
Min Temperature 36 °F 18 °F 3 °F (2004)
Degree Days  
Heating Degree Days 24    
Moisture  
Dew Point 38 °F    
Average Humidity 87    
Maximum Humidity 100    
Minimum Humidity 76    
Precipitation  
Precipitation 0.35 in 0.08 in - ()
Sea Level Pressure  
Sea Level Pressure 29.63 in    
Wind  
Wind Speed 14 mph ()    
Max Wind Speed 33 mph    
Max Gust Speed 39 mph    
Visibility 8.8 miles    
Events Rain    
Averages and records for this station are not official NWS values.
T = Trace of Precipitation, MM = Missing Value Source: Averaged Metar Reports

Daily Weather History Graph

Daily Weather History Graph

Search for Another Location

Airport or City:

Trip Planner

Search our weather history database for the weather conditions in past years. The results will help you decide how hot, cold, wet, or windy it might be!

Date:

Astronomy

Dec. 20, 2012 Rise Set
Actual Time 7:57 AM EST 5:02 PM EST
Civil Twilight 7:25 AM EST 5:34 PM EST
Nautical Twilight 6:49 AM EST 6:09 PM EST
Astronomical Twilight 6:15 AM EST 6:43 PM EST
Moon 12:25 PM EST (12/20) 12:36 AM EST (12/20)
Length of Visible Light 10h 09m
Length of Day
9h 05m
First Quarter, 55% of the Moon is Illuminated
Dec 20
First Quarter
Dec 28
Full
Jan 4
Last Quarter
Jan 11
New
Jan 18
First Quarter

Hourly Weather History & Observations

Time (EST) Temp. Windchill Dew Point Humidity Pressure Visibility Wind Dir Wind Speed Gust Speed Precip Events Conditions
12:00 AM 37.4 °F 32.8 °F 33.8 °F 87% 30.13 in 8.0 mi ESE 5.8 mph - N/A   Overcast
1:00 AM 37 °F - 33 °F 79% 30.09 in 10 mi East 8.1 mph - -   Overcast
1:00 AM 37.4 °F 31.4 °F 32.0 °F 81% 30.09 in 10.0 mi East 8.1 mph - N/A   Overcast
2:00 AM 37.4 °F 30.3 °F 33.8 °F 87% 30.05 in 7.0 mi East 10.4 mph 17.3 mph N/A   Overcast
3:00 AM 37.4 °F 32.1 °F 33.8 °F 87% 30.04 in 7.0 mi East 6.9 mph - N/A   Overcast
4:00 AM 39.2 °F 33.0 °F 35.6 °F 87% 29.99 in 8.0 mi East 9.2 mph - N/A   Overcast
5:00 AM 41.0 °F 31.9 °F 35.6 °F 81% 29.92 in 8.0 mi ESE 19.6 mph - N/A   Overcast
6:00 AM 41.0 °F 32.2 °F 35.6 °F 81% 29.92 in 12.0 mi ESE 18.4 mph 24.2 mph N/A   Overcast
7:00 AM 40 °F - 36 °F 78% 29.89 in 10 mi East 12.7 mph - -   Overcast
7:00 AM 41.0 °F 33.9 °F 35.6 °F 81% 29.89 in 10.0 mi East 12.7 mph - N/A   Overcast
7:32 AM - - - N/A% - 10.0 mi East 17.3 mph - N/A Rain Light Rain Showers
8:00 AM 39.2 °F 29.3 °F 35.6 °F 87% 29.80 in 12.0 mi East 20.7 mph - N/A   Overcast
8:08 AM - - - N/A% - 12.0 mi East 17.3 mph 27.6 mph N/A Rain Light Rain Showers
8:38 AM - - - N/A% - 12.0 mi East 19.6 mph 25.3 mph N/A   Overcast
9:00 AM 41.0 °F 32.2 °F 35.6 °F 81% 29.76 in 15.0 mi East 18.4 mph 27.6 mph N/A   Overcast
10:00 AM 41.0 °F 32.2 °F 35.6 °F 81% 29.69 in 15.0 mi East 18.4 mph 28.8 mph N/A   Overcast
11:00 AM 41.0 °F 32.5 °F 35.6 °F 81% 29.65 in 15.0 mi ESE 17.3 mph 23.0 mph N/A   Overcast
11:25 AM - - - N/A% - 15.0 mi ESE 18.4 mph - N/A Rain Light Rain
12:00 PM 41.0 °F 32.5 °F 37.4 °F 87% 29.62 in 6.0 mi SE 17.3 mph - N/A Rain Light Rain
1:00 PM 40 °F - 39 °F 96% 29.55 in 5 mi ESE 19.6 mph - - Rain Light Rain
1:00 PM 41.0 °F 32.2 °F 39.2 °F 93% 29.55 in 5.0 mi ESE 18.4 mph 25.3 mph N/A Rain Light Rain
1:53 PM - - - N/A% - 6.0 mi SE 20.7 mph - N/A Rain Light Rain
2:00 PM 42.8 °F 33.8 °F 41.0 °F 93% 29.47 in 5.0 mi SE 21.9 mph - N/A Rain Light Rain
2:28 PM - - - N/A% - 5.0 mi SE 21.9 mph 29.9 mph N/A Rain Light Rain
3:00 PM 42.8 °F 32.7 °F 41.0 °F 93% 29.33 in 6.0 mi ESE 27.6 mph 38.0 mph N/A Rain Light Rain
4:00 PM 44.6 °F 35.9 °F 42.8 °F 93% 29.33 in 8.0 mi SE 23.0 mph 31.1 mph N/A Rain Light Rain
5:00 PM 44.6 °F 35.5 °F 42.8 °F 93% 29.27 in 3.0 mi SE 25.3 mph 33.4 mph N/A Rain Light Rain
5:46 PM - - - N/A% - 8.0 mi SSE 23.0 mph 31.1 mph N/A Rain Light Rain
6:00 PM 44.6 °F 39.2 °F 44.6 °F 100% 29.24 in 12.0 mi SSE 10.4 mph 32.2 mph N/A Rain Light Rain
7:00 PM 46 °F - 44 °F 92% 29.21 in 12 mi SSE 21.9 mph - - Rain Light Rain
7:00 PM 46.4 °F 39.2 °F 44.6 °F 93% 29.21 in 12.0 mi SSE 18.4 mph 25.3 mph N/A Rain Light Rain
8:00 PM 44.6 °F 36.4 °F 42.8 °F 93% 29.21 in 12.0 mi South 20.7 mph 31.1 mph N/A Rain Light Rain
9:00 PM 42.8 °F 34.5 °F 41.0 °F 93% 29.24 in 5.0 mi SSW 18.4 mph - N/A Rain Light Rain
9:39 PM - - - N/A% - 12.0 mi SW 19.6 mph 25.3 mph N/A   Overcast
10:00 PM 41.0 °F 31.1 °F 33.8 °F 76% 29.24 in 15.0 mi SW 23.0 mph 28.8 mph N/A   Overcast
10:30 PM - - - N/A% - 12.0 mi SW 27.6 mph 36.8 mph N/A   Light Drizzle
11:00 PM 37.4 °F 26.4 °F 33.8 °F 87% 29.26 in 8.0 mi SW 23.0 mph 29.9 mph N/A Rain Light Rain
11:11 PM - - - N/A% - 1.2 mi SSW 33.4 mph 39.1 mph N/A   Unknown
11:22 PM - - - N/A% - 1.2 mi SSW 24.2 mph 39.1 mph N/A   Unknown
11:28 PM - - - N/A% - 2.0 mi SSW 19.6 mph 34.5 mph N/A   Unknown
11:32 PM - - - N/A% - 3.0 mi SSW 16.1 mph 27.6 mph N/A   Unknown